Temperature
-10 -10 -11 -11 -11 -11 -11 -11 -11 -11 -10 -10 -10 -9 -9 -8 -8 -7 -7 -6 -6 -5 -4 -3 -2 -2 -1 -0 1 1 2 2 3 5 5 6 7 8 8 8 8 9 9
-11 -11 -11 -11 -11 -11 -11 -12 -12 -11 -11 -11 -11 -10 -10 -9 -8 -8 -7 -6 -6 -6 -5 -4 -3 -2 -2 -1 -0 0 1 2 2 4 4 5 6 7 7 7 8 8 8
-11 -11 -11 -12 -12 -12 -12 -12 -12 -12 -12 -12 -11 -11 -10 -9 -9 -8 -7 -7 -6 -6 -6 -5 -4 -3 -3 -2 -1 -0 0 1 2 2 3 4 5 6 6 6 6 6 6
-11 -11 -12 -12 -12 -13 -13 -13 -13 -12 -12 -12 -12 -11 -11 -10 -9 -8 -7 -7 -7 -7 -6 -6 -5 -4 -4 -3 -2 -1 -0 0 1 2 3 3 4 5 5 5 5 5 5
-11 -11 -12 -12 -12 -13 -13 -13 -13 -13 -13 -13 -12 -12 -11 -11 -10 -9 -8 -7 -7 -7 -7 -6 -6 -5 -5 -4 -3 -2 -1 -0 0 1 2 3 3 4 4 5 5 4 4
-11 -11 -12 -12 -12 -13 -13 -13 -13 -13 -13 -13 -13 -12 -12 -11 -10 -9 -8 -8 -8 -8 -7 -7 -7 -6 -6 -4 -4 -3 -2 -1 -1 0 1 2 2 3 4 4 4 4 3
-11 -11 -12 -12 -13 -13 -13 -13 -13 -14 -14 -13 -13 -13 -12 -12 -11 -10 -9 -8 -8 -8 -8 -8 -7 -7 -6 -6 -5 -4 -3 -2 -2 -1 -0 0 1 2 3 3 3 3 3
-11 -11 -12 -13 -13 -13 -14 -14 -14 -14 -14 -14 -13 -13 -13 -12 -11 -10 -9 -9 -8 -8 -8 -8 -8 -7 -7 -7 -6 -5 -5 -4 -4 -3 -2 -1 -0 1 2 2 2 2 2
-11 -12 -12 -13 -13 -14 -14 -14 -14 -14 -14 -14 -13 -13 -13 -12 -12 -11 -10 -9 -9 -9 -9 -8 -8 -8 -8 -7 -7 -6 -6 -6 -5 -4 -4 -3 -2 -1 0 1 2 2 2
-11 -12 -12 -13 -14 -14 -14 -14 -14 -14 -14 -14 -14 -13 -13 -13 -12 -11 -10 -10 -9 -9 -9 -9 -8 -8 -8 -8 -8 -8 -7 -7 -7 -6 -5 -4 -3 -2 -1 -0 0 1 1
-11 -12 -12 -13 -14 -14 -14 -14 -14 -14 -14 -14 -14 -13 -13 -13 -12 -12 -11 -10 -10 -10 -9 -9 -9 -8 -8 -8 -9 -9 -9 -8 -8 -7 -7 -6 -5 -4 -3 -2 -1 -1 0
-11 -12 -13 -13 -14 -14 -14 -14 -14 -14 -14 -14 -14 -13 -13 -13 -13 -12 -11 -11 -11 -10 -10 -9 -9 -9 -9 -9 -9 -10 -9 -9 -9 -9 -8 -8 -7 -7 -6 -5 -4 -3 -2
-11 -12 -13 -14 -14 -14 -14 -14 -14 -14 -14 -14 -13 -13 -13 -13 -13 -12 -12 -12 -11 -11 -11 -10 -10 -10 -10 -10 -10 -10 -10 -10 -10 -10 -10 -10 -9 -9 -8 -8 -7 -6 -5
-12 -13 -13 -14 -14 -14 -14 -14 -14 -14 -14 -14 -13 -13 -13 -13 -13 -12 -12 -12 -12 -12 -11 -11 -11 -11 -11 -11 -11 -11 -11 -11 -11 -11 -11 -11 -11 -10 -9 -9 -9 -8 -7
-12 -13 -13 -14 -14 -14 -14 -14 -14 -14 -14 -14 -14 -14 -14 -13 -13 -13 -13 -13 -13 -12 -12 -12 -12 -12 -12 -12 -12 -12 -12 -12 -12 -12 -12 -11 -11 -11 -10 -10 -9 -9 -9
-12 -13 -13 -14 -14 -14 -14 -14 -15 -15 -14 -14 -14 -14 -14 -14 -13 -13 -14 -14 -13 -13 -13 -13 -13 -13 -13 -13 -13 -13 -13 -13 -13 -13 -13 -12 -12 -12 -11 -11 -10 -10 -10
-12 -13 -13 -14 -14 -15 -15 -15 -15 -15 -15 -15 -15 -14 -14 -14 -14 -14 -14 -14 -14 -14 -14 -14 -14 -14 -14 -14 -14 -14 -14 -14 -14 -14 -14 -14 -13 -13 -12 -12 -12 -11 -11
-12 -12 -13 -14 -14 -15 -15 -15 -15 -15 -15 -15 -15 -15 -15 -14 -14 -14 -14 -14 -14 -14 -14 -14 -15 -15 -15 -15 -15 -15 -15 -15 -15 -15 -15 -14 -14 -14 -14 -13 -13 -13 -13
-11 -12 -13 -14 -14 -14 -15 -15 -15 -15 -15 -15 -15 -15 -15 -15 -15 -15 -15 -15 -15 -15 -15 -15 -15 -15 -15 -15 -15 -15 -15 -15 -15 -15 -15 -15 -15 -15 -15 -15 -14 -14 -14
-11 -11 -12 -13 -14 -14 -15 -15 -15 -15 -15 -15 -15 -15 -15 -14 -15 -15 -15 -15 -15 -15 -15 -15 -15 -15 -15 -15 -15 -15 -16 -16 -16 -16 -16 -15 -15 -15 -15 -15 -15 -15 -15
-10 -10 -11 -12 -13 -14 -14 -15 -15 -15 -15 -15 -15 -15 -15 -15 -15 -15 -15 -15 -15 -15 -15 -15 -15 -15 -15 -15 -16 -16 -16 -16 -16 -16 -16 -16 -15 -15 -15 -15 -15 -15 -15
-10 -10 -11 -12 -12 -13 -13 -14 -14 -15 -15 -15 -15 -15 -15 -15 -15 -15 -15 -15 -15 -15 -15 -15 -15 -15 -15 -15 -15 -15 -15 -15 -15 -15 -15 -15 -15 -15 -15 -15 -15 -15 -15
-9 -10 -10 -11 -12 -12 -13 -13 -14 -14 -14 -15 -15 -15 -15 -15 -15 -15 -15 -15 -15 -15 -15 -15 -15 -15 -15 -15 -15 -15 -15 -15 -15 -15 -15 -15 -15 -15 -15 -15 -15 -15 -15
-9 -9 -10 -10 -11 -11 -12 -12 -13 -13 -13 -14 -14 -14 -14 -15 -15 -15 -15 -15 -15 -15 -15 -15 -15 -15 -15 -15 -15 -15 -14 -14 -14 -14 -14 -14 -14 -14 -14 -14 -14 -14 -14
-9 -9 -9 -10 -10 -11 -11 -11 -12 -12 -12 -13 -13 -13 -14 -14 -14 -14 -14 -14 -14 -14 -14 -14 -14 -14 -14 -14 -14 -14 -14 -14 -14 -14 -14 -14 -14 -14 -14 -14 -14 -14 -14
-9 -9 -9 -10 -10 -10 -10 -10 -11 -11 -11 -12 -12 -13 -13 -13 -13 -13 -14 -14 -14 -14 -14 -14 -14 -14 -14 -14 -14 -14 -13 -13 -13 -13 -13 -13 -13 -14 -14 -14 -14 -14 -14
Wind_Speed
17 17 17 16 16 17 16 17 17 18 19 19 19 19 19 18 18 16 16 16 16 15 14 13 13 13 10 9 8 8 8 9 12 12 9 7 7 7 6 6 8 8 10
17 17 17 16 16 17 17 17 18 18 19 19 18 19 19 18 18 17 17 17 15 14 14 14 13 12 13 10 8 9 8 9 10 12 9 7 7 7 6 7 7 7 9
17 17 17 16 17 17 17 17 18 18 18 18 18 18 18 19 18 18 18 16 13 12 12 12 12 12 12 11 10 8 7 8 9 9 9 6 4 5 7 7 8 7 9
16 17 16 17 17 17 17 17 17 17 18 18 18 17 18 18 17 18 18 13 11 11 10 11 11 11 12 13 10 9 7 7 7 8 8 7 5 6 7 9 9 8 9
16 16 16 17 17 17 17 17 17 17 18 17 17 17 17 16 16 21 17 13 11 10 10 10 10 12 15 13 11 9 7 5 5 6 7 6 6 7 8 7 10 9 8
16 16 16 17 17 17 17 17 17 17 17 17 17 17 17 15 23 27 20 12 10 10 10 10 10 11 13 16 17 17 14 8 5 4 4 4 5 5 5 7 9 10 6
16 16 16 17 17 17 18 17 17 17 17 17 17 17 17 18 25 27 24 13 10 9 9 10 9 10 11 10 12 16 17 19 16 8 5 4 3 3 3 8 9 10 6
16 16 17 17 18 18 18 18 17 16 16 15 16 17 17 18 24 26 26 13 8 8 9 10 10 10 10 10 9 10 12 15 16 12 10 11 10 8 5 2 7 9 9
16 17 18 18 18 18 18 18 17 16 16 15 15 16 16 18 22 26 24 10 7 8 8 10 11 9 11 11 9 10 11 12 15 20 21 21 25 24 15 5 6 9 5
18 18 19 18 18 18 18 18 16 16 15 15 15 15 16 16 20 24 23 9 8 8 8 9 11 10 11 12 10 10 11 11 11 13 16 18 18 20 23 14 7 5 5
18 18 18 18 18 17 17 16 16 15 15 14 14 14 14 15 18 21 22 11 10 8 8 8 8 11 14 15 14 12 12 10 10 11 11 13 13 14 15 15 13 9 6
18 18 18 18 16 15 17 16 15 15 14 14 13 13 12 12 14 18 21 17 14 9 9 7 7 13 17 18 14 15 15 12 9 10 11 11 11 11 12 13 15 15 14
18 18 18 18 16 16 16 16 15 13 12 12 12 11 11 11 12 17 16 17 16 10 9 12 13 16 16 14 18 18 14 10 10 10 10 10 9 9 9 9 11 13 15
18 18 17 17 16 16 14 13 13 13 13 12 11 10 10 10 10 10 9 10 12 9 8 11 15 17 15 14 14 12 11 11 10 9 9 9 8 9 9 8 7 6 8
18 17 16 15 16 15 14 13 14 13 14 13 11 10 9 9 11 15 12 10 10 9 8 7 8 9 9 9 9 10 9 9 10 9 9 8 8 9 9 8 8 8 7
16 16 14 14 14 13 13 13 16 16 19 18 17 14 10 12 14 15 15 15 15 13 9 8 9 9 9 9 8 9 9 9 9 8 8 8 8 8 8 8 8 8 8
16 15 14 13 13 14 14 13 13 14 16 16 17 17 15 14 14 14 13 13 14 12 9 8 8 8 7 7 7 7 7 7 7 7 8 8 7 7 7 7 7 7 7
15 15 15 13 13 13 13 13 12 12 12 11 12 15 15 14 14 13 12 10 9 9 8 7 7 7 6 6 6 5 5 5 5 6 6 6 6 6 6 6 6 6 5
13 12 12 12 12 12 12 12 11 12 11 10 9 10 12 9 9 11 10 7 7 7 6 6 6 6 5 5 5 4 4 4 4 4 4 4 5 5 5 5 4 5 5
11 15 15 12 11 12 11 11 11 11 10 9 9 9 7 5 5 5 6 5 5 5 5 5 5 5 5 4 4 3 3 3 3 3 3 3 3 3 3 3 3 3 3
10 11 15 12 11 11 11 11 10 10 10 9 8 10 10 5 5 5 4 4 4 4 4 4 4 4 4 4 3 3 3 3 3 3 3 3 2 2 2 2 3 3 3
9 9 10 10 10 10 10 10 9 9 10 9 8 8 10 6 5 4 4 4 4 4 4 4 4 4 4 4 4 4 4 4 4 4 4 4 4 4 4 4 4 4 4
9 10 10 10 10 12 11 9 9 9 9 8 8 7 7 6 6 5 5 5 5 5 5 5 5 5 6 6 6 6 6 6 6 6 6 6 5 5 5 6 6 6 6
9 10 11 10 10 10 10 9 9 8 8 8 8 7 7 6 6 7 7 6 6 7 7 7 8 8 10 9 9 9 9 10 10 9 10 9 8 8 7 7 8 8 8
9 10 10 11 11 11 10 10 9 9 8 8 8 8 7 7 7 7 7 7 8 8 9 10 10 10 11 12 12 12 14 15 16 14 13 11 11 11 10 10 9 9 9
9 10 10 11 11 12 11 11 10 10 9 9 8 8 8 8 8 8 8 8 8 8 10 10 12 13 14 13 14 15 17 18 18 18 15 11 10 10 10 9 11 10 10
Wind_Direction
341 339 337 336 335 334 334 333 331 330 330 329 328 327 327 326 326 322 321 318 320 321 322 322 320 317 307 293 281 271 265 258 257 257 253 246 233 221 195 185 161 152 144
338 336 335 335 335 335 335 334 332 331 330 329 328 327 327 327 326 323 320 317 315 319 325 326 327 330 324 314 299 282 271 260 257 256 244 231 225 211 181 166 150 143 138
336 335 334 335 335 335 334 333 333 332 330 330 329 327 327 327 325 324 321 314 313 320 326 327 329 334 333 328 317 300 288 272 255 253 248 225 214 193 170 151 138 132 134
334 333 334 334 333 332 332 333 333 332 331 331 329 328 328 326 325 327 324 322 323 328 331 331 332 338 338 334 328 316 300 286 268 251 244 222 199 184 168 157 146 140 140
331 331 331 330 330 329 330 332 333 333 332 330 329 330 330 329 330 329 327 330 333 335 336 335 335 343 347 346 347 344 329 304 289 262 242 221 194 179 170 163 152 140 130
326 325 326 327 328 328 328 329 331 332 332 331 331 331 332 332 331 333 340 337 338 340 340 339 340 347 352 353 360 10 15 5 331 299 258 224 190 175 160 157 147 142 134
321 321 322 324 325 326 326 327 329 330 330 330 330 331 331 330 334 335 341 340 341 345 345 344 347 350 357 357 6 17 21 26 28 20 19 19 25 21 152 161 160 151 131
319 320 323 324 323 323 324 325 326 327 327 327 327 329 329 331 334 335 338 335 341 350 349 345 346 349 8 10 14 26 28 27 31 36 35 35 33 22 18 103 122 104 92
323 324 324 324 322 323 323 323 324 325 324 325 325 327 329 330 334 336 340 333 345 352 349 347 348 353 22 23 25 33 35 28 29 40 43 41 39 39 36 63 114 133 121
327 324 323 324 324 323 321 322 323 322 321 324 323 325 327 330 334 337 344 345 350 353 351 347 353 12 38 41 37 39 39 32 30 34 38 37 37 37 38 36 34 107 113
325 324 325 326 326 322 322 323 322 322 322 322 323 326 329 333 337 340 350 360 356 353 350 347 360 32 54 55 52 49 46 39 38 41 41 39 39 38 39 40 39 47 75
326 327 328 329 328 325 326 326 326 325 324 324 324 327 332 336 339 342 351 1 3 356 348 348 20 52 61 58 54 48 45 42 43 45 45 41 39 39 43 49 52 56 59
329 331 331 331 331 331 331 331 331 330 327 324 324 328 332 335 339 344 353 1 5 7 9 31 55 59 60 56 50 47 42 40 42 46 46 43 40 40 43 53 60 63 61
332 334 335 335 336 338 339 339 338 336 333 332 336 338 337 337 343 352 1 4 7 15 27 39 51 58 57 52 48 45 42 42 42 43 43 42 40 41 40 39 45 54 62
335 338 338 339 341 344 345 345 344 343 343 348 349 346 346 344 355 14 22 19 19 29 36 48 49 49 50 49 47 45 42 40 41 38 39 40 40 42 40 38 43 57 65
339 341 341 344 347 347 344 343 347 349 351 356 357 359 357 2 15 28 30 30 31 38 47 50 50 49 47 44 43 42 40 38 36 37 38 38 38 38 41 42 47 54 59
342 341 343 346 348 346 346 346 346 349 356 1 3 4 10 19 31 35 35 38 40 42 48 48 46 44 43 41 40 40 40 37 34 36 36 33 35 37 39 40 44 51 54
343 345 348 347 347 347 348 349 350 350 353 359 4 7 12 21 31 37 38 41 42 42 42 42 40 38 36 33 32 31 30 31 31 32 33 31 28 31 34 37 39 39 44
345 348 348 348 349 349 351 353 354 355 356 357 0 3 6 12 26 34 34 36 37 37 35 33 31 29 28 25 22 20 17 20 21 15 22 22 19 21 25 25 30 32 31
344 347 351 349 351 352 354 356 357 357 357 359 360 355 358 7 19 23 26 27 28 28 24 22 18 14 11 9 5 2 358 1 1 354 357 357 356 356 359 357 359 1 7
340 340 347 349 353 353 355 355 354 355 356 357 358 359 9 5 2 0 2 4 5 6 3 359 354 350 346 344 338 333 323 322 320 317 313 311 307 300 299 298 296 296 303
336 337 341 345 348 351 351 350 349 349 351 353 351 351 353 351 344 339 336 333 330 327 325 322 321 320 316 313 310 308 303 297 292 285 282 278 272 267 264 262 263 265 265
334 335 338 341 343 343 345 344 343 343 343 342 341 340 338 334 327 320 313 310 307 303 300 298 298 299 298 292 286 284 283 283 280 278 274 270 261 256 252 249 248 251 252
334 335 336 337 338 339 337 336 334 332 330 328 327 325 323 317 309 302 297 294 291 288 287 285 284 287 288 287 283 277 274 274 273 266 258 257 257 256 251 247 247 247 245
338 337 336 336 335 334 331 328 324 321 317 313 311 309 306 301 295 290 285 281 280 278 279 279 278 279 281 281 280 278 279 281 278 271 260 250 247 247 249 249 247 248 243
339 338 337 336 336 335 332 327 321 316 307 301 297 294 292 289 286 283 279 275 273 273 274 273 271 272 275 277 277 278 281 283 283 279 272 256 241 242 243 243 243 242 243
Height
1535 1528 1522 1516 1510 1504 1499 1493 1486 1480 1474 1469 1463 1458 1453 1448 1444 1440 1436 1432 1428 1424 1420 1417 1414 1411 1410 1408 1407 1406 1406 1407 1406 1407 1408 1408 1410 1412 1414 1416 1418 1421 1424
1533 1526 1520 1514 1508 1502 1496 1490 1484 1478 1472 1466 1461 1455 1450 1446 1441 1437 1433 1429 1425 1421 1417 1413 1410 1407 1404 1402 1401 1400 1400 1400 1401 1401 1402 1403 1404 1407 1409 1411 1414 1418 1421
1531 1524 1518 1512 1506 1499 1493 1487 1481 1475 1469 1464 1458 1453 1447 1443 1438 1434 1430 1425 1422 1418 1414 1410 1407 1404 1401 1398 1396 1395 1394 1393 1394 1395 1396 1397 1399 1401 1404 1407 1410 1415 1419
1529 1522 1516 1510 1503 1497 1491 1485 1479 1473 1467 1461 1455 1450 1445 1440 1436 1432 1427 1422 1419 1415 1411 1408 1404 1401 1398 1395 1392 1390 1389 1388 1388 1388 1390 1391 1393 1396 1400 1403 1407 1412 1416
1527 1520 1514 1508 1501 1495 1489 1483 1477 1470 1464 1459 1453 1448 1443 1438 1434 1429 1425 1420 1416 1412 1409 1405 1402 1399 1396 1393 1390 1387 1385 1383 1383 1383 1384 1386 1388 1390 1394 1399 1403 1409 1415
1524 1518 1512 1505 1499 1492 1486 1480 1474 1468 1462 1457 1451 1446 1441 1436 1432 1427 1423 1419 1415 1411 1407 1404 1401 1397 1394 1391 1388 1385 1383 1380 1379 1379 1379 1380 1382 1385 1389 1394 1399 1404 1412
1522 1516 1509 1503 1496 1490 1484 1478 1472 1466 1460 1454 1449 1444 1439 1434 1430 1425 1421 1417 1414 1410 1407 1404 1401 1397 1394 1390 1387 1384 1382 1379 1378 1377 1376 1376 1378 1381 1385 1390 1395 1400 1406
1520 1513 1507 1500 1494 1487 1481 1475 1470 1464 1458 1453 1448 1443 1438 1433 1428 1424 1420 1416 1413 1410 1407 1404 1401 1398 1395 1391 1388 1385 1382 1380 1378 1376 1376 1375 1376 1378 1383 1387 1391 1397 1404
1518 1512 1505 1498 1491 1484 1478 1473 1467 1461 1456 1451 1446 1441 1436 1431 1427 1422 1418 1415 1412 1410 1407 1404 1401 1399 1396 1392 1390 1387 1385 1382 1380 1379 1377 1376 1376 1378 1381 1386 1390 1395 1401
1517 1509 1502 1495 1489 1482 1476 1470 1464 1459 1454 1449 1444 1440 1435 1431 1426 1422 1418 1414 1412 1410 1407 1404 1402 1400 1397 1394 1392 1390 1388 1386 1384 1381 1380 1379 1379 1380 1382 1385 1389 1394 1398
1515 1507 1500 1493 1486 1480 1474 1468 1462 1457 1452 1448 1443 1439 1434 1430 1426 1422 1418 1415 1412 1410 1408 1405 1403 1400 1399 1397 1395 1393 1392 1390 1388 1385 1384 1383 1382 1383 1383 1386 1389 1393 1397
1513 1505 1498 1491 1485 1478 1472 1466 1461 1456 1451 1446 1442 1438 1434 1430 1426 1422 1418 1416 1413 1411 1409 1406 1404 1402 1400 1399 1398 1397 1395 1394 1392 1390 1389 1388 1388 1388 1388 1389 1391 1393 1397
1511 1503 1496 1490 1484 1477 1471 1465 1459 1455 1450 1445 1441 1437 1433 1430 1426 1423 1420 1417 1414 1412 1410 1407 1405 1403 1402 1402 1401 1400 1399 1398 1396 1395 1394 1394 1394 1394 1394 1394 1395 1396 1398
1509 1502 1495 1489 1483 1477 1471 1465 1459 1454 1449 1445 1440 1437 1434 1430 1427 1424 1421 1418 1416 1413 1411 1409 1407 1406 1405 1405 1405 1404 1403 1402 1401 1400 1400 1400 1399 1399 1399 1399 1400 1401 1402
1509 1501 1495 1489 1483 1476 1471 1465 1460 1455 1451 1446 1441 1438 1435 1432 1429 1426 1423 1420 1418 1416 1414 1412 1411 1411 1410 1409 1409 1408 1407 1407 1406 1405 1405 1404 1404 1404 1403 1404 1404 1405 1407
1508 1501 1495 1489 1482 1476 1471 1465 1461 1456 1451 1446 1442 1439 1436 1434 1430 1428 1425 1423 1420 1418 1417 1416 1415 1415 1414 1414 1413 1412 1411 1410 1410 1409 1408 1408 1408 1408 1408 1408 1408 1409 1410
1510 1502 1496 1490 1483 1477 1471 1466 1460 1456 1452 1447 1443 1440 1438 1435 1433 1430 1427 1425 1423 1421 1420 1420 1419 1419 1418 1417 1416 1416 1415 1414 1413 1412 1412 1411 1411 1411 1411 1411 1412 1412 1413
1511 1504 1498 1491 1485 1479 1473 1468 1462 1457 1453 1449 1445 1442 1440 1438 1435 1433 1430 1428 1427 1425 1424 1423 1423 1422 1421 1420 1419 1418 1417 1416 1416 1415 1414 1414 1414 1414 1414 1414 1414 1415 1416
1512 1505 1499 1493 1487 1481 1475 1470 1465 1460 1456 1452 1448 1445 1442 1440 1438 1436 1434 1432 1431 1429 1428 1427 1426 1424 1423 1422 1420 1419 1418 1418 1417 1417 1416 1416 1416 1416 1416 1416 1416 1416 1417
1514 1507 1501 1495 1488 1482 1477 1471 1467 1462 1458 1454 1451 1448 1445 1443 1441 1439 1437 1435 1434 1432 1431 1429 1428 1426 1425 1423 1421 1420 1419 1418 1418 1417 1417 1417 1416 1416 1417 1417 1417 1418 1418
1515 1509 1502 1496 1490 1484 1479 1473 1469 1464 1461 1457 1453 1450 1447 1445 1443 1441 1439 1438 1436 1434 1433 1431 1429 1427 1425 1424 1422 1421 1420 1419 1418 1417 1417 1416 1416 1416 1416 1417 1417 1417 1418
1517 1510 1504 1498 1492 1486 1481 1476 1471 1466 1462 1459 1455 1452 1449 1446 1444 1442 1440 1438 1436 1435 1433 1431 1429 1427 1425 1424 1422 1421 1419 1418 1418 1417 1416 1416 1415 1415 1415 1415 1415 1416 1416
1518 1512 1506 1500 1494 1488 1482 1477 1472 1468 1463 1459 1456 1452 1449 1446 1444 1441 1439 1437 1435 1433 1432 1430 1428 1426 1424 1423 1421 1419 1418 1417 1416 1415 1415 1414 1414 1413 1413 1413 1413 1414 1414
1520 1514 1508 1502 1496 1490 1484 1478 1473 1468 1464 1459 1455 1452 1448 1445 1442 1439 1437 1435 1433 1431 1429 1427 1425 1424 1422 1420 1419 1417 1416 1415 1414 1413 1412 1411 1411 1410 1410 1410 1410 1410 1411
1521 1515 1509 1503 1497 1491 1485 1479 1474 1468 1463 1459 1454 1451 1447 1443 1440 1437 1434 1432 1430 1427 1425 1424 1422 1420 1418 1417 1415 1414 1413 1412 1411 1409 1408 1407 1406 1406 1405 1405 1405 1405 1406
1521 1516 1510 1504 1498 1492 1486 1480 1474 1469 1463 1458 1453 1448 1444 1440 1437 1434 1431 1428 1425 1423 1421 1419 1417 1416 1414 1413 1411 1410 1409 1408 1407 1405 1404 1402 1401 1400 1400 1399 1399 1400 1400